GW2742 Weather Reports


time (UTC)temp
C
wind
direction
speed
KPH
gust
KPH
rain 1hr
cm
rain 24hr
cm
rain mn
cm
humidity
%
barometer
mb
20260904234024 31 127 9.7 24.1 0.00 0.00 0.00 15 1008.5
20260904233528 31 74 11.3 24.1 0.00 0.00 0.00 17 1008.5
20260904233053 31 95 6.4 19.3 0.00 0.00 0.00 18 1008.6
20260904232530 31 146 9.7 19.3 0.00 0.00 0.00 16 1008.6
20260904232027 31 101 8.0 19.3 0.00 0.00 0.00 20 1008.5
20260904231548 31 160 8.0 20.9 0.00 0.00 0.00 16 1008.6
20260904231027 32 124 11.3 20.9 0.00 0.00 0.00 16 1008.6
20260904230531 32 105 8.0 14.5 0.00 0.00 0.00 17 1008.6
20260904230049 32 154 3.2 12.9 0.00 0.00 0.00 17 1008.6
20260904225525 32 90 3.2 14.5 0.00 0.00 0.00 20 1008.8
20260904225025 32 169 6.4 14.5 0.00 0.00 0.00 16 1008.7
20260904224544 32 139 6.4 14.5 0.00 0.00 0.00 18 1008.8
20260904224027 32 128 3.2 14.5 0.00 0.00 0.00 17 1008.8
20260904223526 32 117 4.8 11.3 0.00 0.00 0.00 15 1008.8
20260904223044 32 59 3.2 11.3 0.00 0.00 0.00 18 1008.9
20260904222524 32 68 3.2 12.9 0.00 0.00 0.00 19 1009.0
20260904222025 31 201 4.8 17.7 0.00 0.00 0.00 16 1009.0
20260904221544 31 64 6.4 17.7 0.00 0.00 0.00 17 1009.1
20260904221027 31 96 6.4 16.1 0.00 0.00 0.00 18 1009.1
20260904220527 31 87 6.4 16.1 0.00 0.00 0.00 16 1009.1
20260904220105 31 85 9.7 16.1 0.00 0.00 0.00 16 1009.2
20260904215530 31 125 4.8 14.5 0.00 0.00 0.00 22 1009.2
20260904215026 31 106 4.8 9.7 0.00 0.00 0.00 15 1009.2
20260904214546 31 79 1.6 8.0 0.00 0.00 0.00 16 1009.1
20260904214026 31 41 3.2 8.0 0.00 0.00 0.00 15 1009.1
20260904213527 31 33 0.0 16.1 0.00 0.00 0.00 17 1009.1
20260904213051 31 159 3.2 16.1 0.00 0.00 0.00 20 1009.1
20260904212529 31 69 3.2 11.3 0.00 0.00 0.00 16 1009.2
20260904212028 31 70 1.6 9.7 0.00 0.00 0.00 17 1009.1
20260904211545 31 287 0.0 20.9 0.00 0.00 0.00 20 1009.2
20260904211030 31 99 4.8 20.9 0.00 0.00 0.00 18 1009.2
20260904210526 31 175 8.0 16.1 0.00 0.00 0.00 18 1009.2
20260904210045 31 131 6.4 12.9 0.00 0.00 0.00 22 1009.4
20260904205529 31 325 4.8 11.3 0.00 0.00 0.00 18 1009.3
20260904205028 31 63 3.2 11.3 0.00 0.00 0.00 17 1009.4
20260904204544 31 0 4.8 19.3 0.00 0.00 0.00 16 1009.3
20260904204027 30 122 9.7 19.3 0.00 0.00 0.00 18 1009.4
20260904203527 30 91 4.8 12.9 0.00 0.00 0.00 18 1009.4
20260904203049 30 40 4.8 12.9 0.00 0.00 0.00 18 1009.4
20260904202526 30 25 1.6 9.7 0.00 0.00 0.00 19 1009.4
20260904202025 30 49 1.6 11.3 0.00 0.00 0.00 18 1009.4
20260904201600 30 349 3.2 11.3 0.00 0.00 0.00 21 1009.5
20260904201031 30 90 4.8 16.1 0.00 0.00 0.00 17 1009.6
20260904200524 30 82 6.4 16.1 0.00 0.00 0.00 22 1009.7
20260904200050 30 77 6.4 19.3 0.00 0.00 0.00 18 1009.6
20260904195525 30 142 9.7 19.3 0.00 0.00 0.00 21 1009.6
20260904195026 30 359 4.8 12.9 0.00 0.00 0.00 22 1009.7
20260904194542 30 146 6.4 12.9 0.00 0.00 0.00 19 1009.7
20260904194031 30 74 4.8 12.9 0.00 0.00 0.00 20 1009.8
20260904193527 30 84 6.4 11.3 0.00 0.00 0.00 19 1009.9
20260904193050 30 148 4.8 11.3 0.00 0.00 0.00 21 1009.9
20260904192533 30 94 6.4 11.3 0.00 0.00 0.00 19 1009.9
20260904192028 29 77 4.8 12.9 0.00 0.00 0.00 21 1010.1
20260904191544 29 89 6.4 12.9 0.00 0.00 0.00 24 1010.0
20260904191025 29 193 4.8 11.3 0.00 0.00 0.00 22 1010.1
20260904190525 29 220 3.2 16.1 0.00 0.00 0.00 24 1010.1
20260904190042 29 136 4.8 16.1 0.00 0.00 0.00 24 1010.1
20260904185524 29 311 3.2 12.9 0.00 0.00 0.00 25 1010.1
20260904185024 29 143 4.8 16.1 0.00 0.00 0.00 22 1010.3
20260904184544 28 64 8.0 16.1 0.00 0.00 0.00 24 1010.4
20260904184029 28 127 4.8 16.1 0.00 0.00 0.00 27 1010.3
20260904183530 28 89 1.6 9.7 0.00 0.00 0.00 22 1010.4
20260904183058 28 120 3.2 9.7 0.00 0.00 0.00 24 1010.7
20260904182526 28 61 3.2 9.7 0.00 0.00 0.00 22 1010.6
20260904182030 28 54 3.2 9.7 0.00 0.00 0.00 22 1010.7
20260904181544 28 42 4.8 9.7 0.00 0.00 0.00 21 1010.8
20260904181025 28 127 4.8 19.3 0.00 0.00 0.00 24 1010.7
20260904180528 28 89 6.4 19.3 0.00 0.00 0.00 22 1010.9
20260904180056 28 121 6.4 17.7 0.00 0.00 0.00 25 1010.9
20260904175525 28 150 4.8 14.5 0.00 0.00 0.00 30 1011.0
20260904175027 27 103 3.2 11.3 0.00 0.00 0.00 28 1011.0
20260904174557 27 96 3.2 8.0 0.00 0.00 0.00 24 1011.0
20260904174027 27 111 3.2 8.0 0.00 0.00 0.00 23 1011.2
20260904173527 27 112 3.2 12.9 0.00 0.00 0.00 27 1011.3
20260904173112 26 118 3.2 12.9 0.00 0.00 0.00 28 1011.3
20260904172532 26 141 6.4 12.9 0.00 0.00 0.00 26 1011.3
20260904172027 26 179 4.8 12.9 0.00 0.00 0.00 29 1011.5
20260904171553 26 91 3.2 12.9 0.00 0.00 0.00 25 1011.3
20260904171024 26 147 4.8 14.5 0.00 0.00 0.00 26 1011.3
20260904170524 26 104 8.0 16.1 0.00 0.00 0.00 24 1011.3
20260904170049 26 72 8.0 16.1 0.00 0.00 0.00 24 1011.4
20260904165524 25 82 6.4 16.1 0.00 0.00 0.00 28 1011.4
20260904165026 25 86 6.4 17.7 0.00 0.00 0.00 31 1011.5
20260904164555 25 158 8.0 17.7 0.00 0.00 0.00 26 1011.5
20260904164027 25 84 8.0 14.5 0.00 0.00 0.00 28 1011.5
20260904163534 25 90 8.0 14.5 0.00 0.00 0.00 29 1011.5
20260904163048 24 91 4.8 12.9 0.00 0.00 0.00 31 1011.5
20260904162529 23 138 6.4 12.9 0.00 0.00 0.00 31 1011.5
20260904162024 23 117 6.4 12.9 0.00 0.00 0.00 32 1011.5
20260904161543 22 0 0.0 4.8 0.00 0.00 0.00 41 1011.5
20260904161025 22 250 0.0 4.8 0.00 0.00 0.00 47 1011.3
20260904160528 21 236 1.6 4.8 0.00 0.00 0.00 44 1011.4
20260904160044 21 221 0.0 3.2 0.00 0.00 0.00 42 1011.4
20260904155525 21 0 0.0 6.4 0.00 0.00 0.00 41 1011.4
20260904155025 21 333 1.6 6.4 0.00 0.00 0.00 44 1011.5
20260904154543 20 335 1.6 6.4 0.00 0.00 0.00 44 1011.4
20260904154025 20 0 0.0 6.4 0.00 0.00 0.00 47 1011.4
20260904153527 20 0 0.0 3.2 0.00 0.00 0.00 45 1011.3
20260904153055 19 217 0.0 4.8 0.00 0.00 0.00 42 1011.4
20260904152525 19 0 1.6 4.8 0.00 0.00 0.00 43 1011.3
20260904152024 18 0 0.0 4.8 0.00 0.00 0.00 42 1011.3
20260904151547 18 252 1.6 4.8 0.00 0.00 0.00 50 1011.3
20260904151028 17 55 0.0 3.2 0.00 0.00 0.00 53 1011.3
20260904150529 17 0 0.0 3.2 0.00 0.00 0.00 47 1011.3
20260904150056 17 94 0.0 3.2 0.00 0.00 0.00 53 1011.4
20260904145527 16 0 0.0 3.2 0.00 0.00 0.00 51 1011.4
20260904145030 16 0 0.0 4.8 0.00 0.00 0.00 60 1011.5
20260904144549 15 0 1.6 4.8 0.00 0.00 0.00 57 1011.5
20260904144028 15 46 0.0 1.6 0.00 0.00 0.00 58 1011.5
20260904143524 15 0 0.0 0.0 0.00 0.00 0.00 59 1011.5
20260904143043 15 0 0.0 3.2 0.00 0.00 0.00 64 1011.6
20260904142525 14 0 0.0 3.2 0.00 0.00 0.00 66 1011.5
20260904142026 13 94 0.0 3.2 0.00 0.00 0.00 66 1011.5
20260904141544 13 0 0.0 0.0 0.00 0.00 0.00 64 1011.5
20260904141025 12 0 0.0 0.0 0.00 0.00 0.00 69 1011.5
20260904140524 12 0 0.0 0.0 0.00 0.00 0.00 69 1011.4
20260904140047 11 0 0.0 4.8 0.00 0.00 0.00 72 1011.4
20260904135527 11 0 0.0 6.4 0.00 0.00 0.00 72 1011.4
20260904135027 10 0 1.6 6.4 0.00 0.00 0.00 71 1011.3
20260904134548 10 216 3.2 6.4 0.00 0.00 0.00 73 1011.3
20260904134025 10 257 3.2 6.4 0.00 0.00 0.00 74 1011.0
20260904133525 9 0 0.0 0.0 0.00 0.00 0.00 76 1011.1
20260904133047 8 0 0.0 0.0 0.00 0.00 0.00 76 1011.0
20260904132525 8 0 0.0 0.0 0.00 0.00 0.00 77 1010.9
20260904132025 8 0 0.0 0.0 0.00 0.00 0.00 78 1011.0
20260904131545 7 0 0.0 0.0 0.00 0.00 0.00 79 1010.8
20260904131026 7 0 0.0 0.0 0.00 0.00 0.00 77 1010.6
20260904130527 7 0 0.0 0.0 0.00 0.00 0.00 77 1010.5
20260904130052 7 0 0.0 0.0 0.00 0.00 0.00 78 1010.6
20260904125529 7 0 0.0 0.0 0.00 0.00 0.00 80 1010.4
20260904125028 7 0 0.0 0.0 0.00 0.00 0.00 81 1010.4
20260904124556 7 0 0.0 0.0 0.00 0.00 0.00 81 1010.3
20260904124023 7 0 0.0 0.0 0.00 0.00 0.00 81 1010.3
20260904123525 7 0 0.0 0.0 0.00 0.00 0.00 80 1010.1
20260904123045 7 0 0.0 0.0 0.00 0.00 0.00 81 1010.1
20260904122524 7 0 0.0 0.0 0.00 0.00 0.00 80 1010.2
20260904122024 7 0 0.0 0.0 0.00 0.00 0.00 80 1010.1
20260904121543 7 0 0.0 0.0 0.00 0.00 0.00 78 1010.0
20260904121024 8 0 0.0 0.0 0.00 0.00 0.00 77 1010.0
20260904120524 8 0 0.0 3.2 0.00 0.00 0.00 77 1009.9
20260904120054 8 0 0.0 3.2 0.00 0.00 0.00 77 1010.0
20260904115528 8 358 0.0 3.2 0.00 0.00 0.00 76 1009.9
20260904115028 8 0 0.0 0.0 0.00 0.00 0.00 76 1009.9
20260904114546 8 0 0.0 1.6 0.00 0.00 0.00 75 1009.8
20260904114028 8 0 0.0 1.6 0.00 0.00 0.00 75 1009.9
20260904113524 8 0 0.0 1.6 0.00 0.00 0.00 75 1009.8
20260904113050 8 0 0.0 0.0 0.00 0.00 0.00 74 1009.7
20260904112525 8 0 0.0 1.6 0.00 0.00 0.00 73 1009.8
20260904112026 8 0 0.0 4.8 0.00 0.00 0.00 73 1009.8
20260904111544 9 0 1.6 4.8 0.00 0.00 0.00 73 1009.7
20260904111024 9 269 3.2 4.8 0.00 0.00 0.00 72 1009.9
20260904110525 9 0 1.6 4.8 0.00 0.00 0.00 72 1009.7
20260904110050 9 0 0.0 6.4 0.00 0.00 0.00 72 1009.8
20260904105527 9 83 1.6 6.4 0.00 0.00 0.00 72 1009.8
20260904105027 9 79 0.0 4.8 0.00 0.00 0.00 72 1009.8
20260904104543 10 0 0.0 4.8 0.00 0.00 0.00 69 1009.7
20260904104026 10 79 1.6 6.4 0.00 0.00 0.00 70 1009.8
20260904103528 10 94 0.0 6.4 0.00 0.00 0.00 71 1009.6
20260904103044 10 94 1.6 6.4 0.00 0.00 0.00 70 1009.7
20260904102523 10 257 1.6 4.8 0.00 0.00 0.00 72 1009.5
20260904102023 10 248 1.6 4.8 0.00 0.00 0.00 71 1009.4
20260904101555 10 248 1.6 4.8 0.00 0.00 0.00 71 1009.4
20260904101028 10 248 0.0 3.2 0.00 0.00 0.00 73 1009.5
20260904100530 10 248 0.0 3.2 0.00 0.00 0.00 72 1009.5
20260904100044 10 0 0.0 3.2 0.00 0.00 0.00 72 1009.5
20260904095527 10 247 1.6 4.8 0.00 0.00 0.00 71 1009.5
20260904095026 10 0 0.0 4.8 0.00 0.00 0.00 70 1009.4
20260904094554 10 248 1.6 4.8 0.00 0.00 0.00 69 1009.4
20260904094024 10 221 1.6 4.8 0.00 0.00 0.00 68 1009.4
20260904093524 10 0 0.0 4.8 0.00 0.00 0.00 70 1009.4
20260904093057 11 220 0.0 4.8 0.00 0.00 0.00 69 1009.4
20260904092528 11 218 1.6 6.4 0.00 0.00 0.00 67 1009.2
20260904092024 10 216 1.6 6.4 0.00 0.00 0.00 69 1009.5
20260904091550 10 176 1.6 4.8 0.00 0.00 0.00 69 1009.5
20260904091028 10 0 0.0 0.0 0.00 0.00 0.00 68 1009.2
20260904090526 11 0 0.0 0.0 0.00 0.00 0.00 70 1009.2
20260904090048 11 0 0.0 0.0 0.00 0.00 0.00 67 1009.2
20260904085526 11 0 0.0 0.0 0.00 0.00 0.00 67 1009.3
20260904085028 11 0 0.0 0.0 0.00 0.00 0.00 67 1009.3
20260904084545 11 0 0.0 1.6 0.00 0.00 0.00 67 1009.3
20260904084025 11 0 0.0 3.2 0.00 0.00 0.00 67 1009.3
20260904083525 11 0 0.0 3.2 0.00 0.00 0.00 67 1009.4
20260904083050 11 0 0.0 3.2 0.00 0.00 0.00 69 1009.5
20260904082527 11 0 0.0 3.2 0.00 0.00 0.00 68 1009.7
20260904082026 11 302 0.0 4.8 0.00 0.00 0.00 68 1009.6
20260904081605 11 0 1.6 4.8 0.00 0.00 0.00 67 1009.6
20260904081024 11 76 1.6 4.8 0.00 0.00 0.00 68 1009.7
20260904080524 11 0 0.0 0.0 0.00 0.00 0.00 67 1009.5
20260904080047 11 0 0.0 0.0 0.00 0.00 0.00 66 1009.7
20260904075525 12 0 0.0 0.0 0.00 0.00 0.00 66 1009.7
20260904075026 12 0 0.0 0.0 0.00 0.00 0.00 67 1009.8
20260904074606 12 0 0.0 0.0 0.00 0.00 0.00 66 1009.8
20260904074024 12 0 0.0 0.0 0.00 0.00 0.00 66 1009.7
20260904073527 12 0 0.0 0.0 0.00 0.00 0.00 65 1009.8
20260904073102 12 0 0.0 0.0 0.00 0.00 0.00 63 1009.7
20260904072527 13 0 0.0 0.0 0.00 0.00 0.00 62 1009.7
20260904072026 13 0 0.0 0.0 0.00 0.00 0.00 62 1009.8
20260904071544 13 0 0.0 0.0 0.00 0.00 0.00 60 1009.8
20260904071026 13 0 0.0 0.0 0.00 0.00 0.00 61 1009.9
20260904070528 13 0 0.0 0.0 0.00 0.00 0.00 60 1009.7
20260904070053 13 0 0.0 0.0 0.00 0.00 0.00 61 1009.8
20260904065524 13 0 0.0 3.2 0.00 0.00 0.00 59 1009.9
20260904065024 13 0 0.0 4.8 0.00 0.00 0.00 60 1009.8
20260904064551 13 195 1.6 4.8 0.00 0.00 0.00 60 1009.8
20260904064025 13 196 1.6 4.8 0.00 0.00 0.00 60 1009.7
20260904063527 14 0 0.0 3.2 0.00 0.00 0.00 59 1009.7
20260904063054 14 0 1.6 3.2 0.00 0.00 0.00 58 1009.7
20260904062527 14 0 0.0 3.2 0.00 0.00 0.00 57 1009.6
20260904062026 15 0 0.0 3.2 0.00 0.00 0.00 57 1009.8
20260904061543 15 0 0.0 4.8 0.00 0.00 0.00 57 1009.7
20260904061028 15 0 0.0 4.8 0.00 0.00 0.00 56 1009.8
20260904060526 15 192 3.2 4.8 0.00 0.00 0.00 56 1009.6
20260904060056 15 0 0.0 4.8 0.00 0.00 0.00 54 1009.5
20260904055524 15 231 1.6 4.8 0.00 0.00 0.00 54 1009.6
20260904055024 15 221 0.0 4.8 0.00 0.00 0.00 56 1009.7
20260904054548 16 0 1.6 4.8 0.00 0.00 0.00 55 1009.7
20260904054025 16 221 0.0 6.4 0.00 0.00 0.00 55 1009.7
20260904053525 16 221 0.0 6.4 0.00 0.00 0.00 54 1009.8
20260904053045 16 203 1.6 4.8 0.00 0.00 0.00 55 1009.8
20260904052525 16 199 0.0 3.2 0.00 0.00 0.00 54 1009.8
20260904052025 16 199 0.0 8.0 0.00 0.00 0.00 53 1009.8
20260904051545 16 0 0.0 8.0 0.00 0.00 0.00 52 1009.8
20260904051025 16 204 3.2 8.0 0.00 0.00 0.00 53 1009.9
20260904050525 16 212 3.2 6.4 0.00 0.00 0.00 51 1009.8
20260904050045 16 191 1.6 6.4 0.00 0.00 0.00 52 1009.8
20260904045525 17 195 3.2 6.4 0.00 0.00 0.00 49 1009.8
20260904045027 17 0 0.0 3.2 0.00 0.00 0.00 44 1009.8
20260904044548 17 0 1.6 3.2 0.00 0.00 0.00 43 1009.8
20260904044031 17 0 0.0 4.8 0.00 0.00 0.00 46 1009.9
20260904043527 17 200 0.0 4.8 0.00 0.00 0.00 47 1009.9
20260904043057 16 200 1.6 4.8 0.00 0.00 0.00 48 1010.0
20260904042530 17 193 1.6 3.2 0.00 0.00 0.00 56 1010.0
20260904042026 17 0 0.0 3.2 0.00 0.00 0.00 53 1010.0
20260904041543 17 193 0.0 3.2 0.00 0.00 0.00 53 1010.1
20260904041025 17 193 0.0 3.2 0.00 0.00 0.00 51 1010.0
20260904040524 17 193 1.6 3.2 0.00 0.00 0.00 48 1010.1
20260904040045 17 193 0.0 3.2 0.00 0.00 0.00 47 1010.0
20260904035526 17 0 0.0 3.2 0.00 0.00 0.00 46 1010.0
20260904035024 17 0 0.0 1.6 0.00 0.00 0.00 48 1009.9
20260904034550 17 0 0.0 1.6 0.00 0.00 0.00 43 1010.0
20260904034024 17 0 0.0 1.6 0.00 0.00 0.00 48 1010.1
20260904033529 17 0 0.0 3.2 0.00 0.00 0.00 44 1010.1
20260904033051 17 0 0.0 4.8 0.00 0.00 0.00 44 1010.1
20260904032530 17 193 0.0 4.8 0.00 0.00 0.00 43 1010.0
20260904032026 17 193 0.0 1.6 0.00 0.00 0.00 45 1010.2
20260904031546 18 0 0.0 0.0 0.00 0.00 0.00 44 1010.0
20260904031024 18 0 0.0 0.0 0.00 0.00 0.00 36 1009.9
20260904030526 18 0 0.0 0.0 0.00 0.00 0.00 37 1010.0
20260904030044 18 0 0.0 0.0 0.00 0.00 0.00 37 1009.8
20260904025525 18 0 0.0 0.0 0.00 0.00 0.00 38 1009.7
20260904025025 18 0 0.0 0.0 0.00 0.00 0.00 42 1009.7
20260904024546 18 0 0.0 0.0 0.00 0.00 0.00 39 1009.7
20260904024025 19 0 0.0 0.0 0.00 0.00 0.00 37 1009.4
20260904023525 19 0 0.0 0.0 0.00 0.00 0.00 36 1009.4
20260904023054 20 0 0.0 0.0 0.00 0.00 0.00 37 1009.2
20260904022525 20 0 0.0 0.0 0.00 0.00 0.00 37 1009.2
20260904022026 20 0 0.0 0.0 0.00 0.00 0.00 38 1009.1
20260904021555 20 0 0.0 0.0 0.00 0.00 0.00 38 1009.3
20260904021025 20 0 0.0 0.0 0.00 0.00 0.00 39 1009.2
20260904020525 21 0 0.0 0.0 0.00 0.00 0.00 41 1009.1
20260904020045 21 0 0.0 0.0 0.00 0.00 0.00 36 1009.1
20260904015524 21 0 0.0 3.2 0.00 0.00 0.00 36 1009.1
20260904015024 21 0 0.0 3.2 0.00 0.00 0.00 38 1009.1
20260904014619 22 0 0.0 3.2 0.00 0.00 0.00 37 1009.1
20260904014025 22 0 0.0 0.0 0.00 0.00 0.00 36 1009.0
20260904013526 22 0 0.0 0.0 0.00 0.00 0.00 35 1009.1
20260904013058 23 0 0.0 1.6 0.00 0.00 0.00 37 1009.0
20260904012526 23 0 0.0 1.6 0.00 0.00 0.00 38 1009.0
20260904012027 24 0 0.0 1.6 0.00 0.00 0.00 33 1009.1
20260904011546 25 0 0.0 1.6 0.00 0.00 0.00 33 1008.9
20260904011024 25 42 0.0 1.6 0.00 0.00 0.00 31 1009.1
20260904010524 26 42 0.0 4.8 0.00 0.00 0.00 29 1009.1
20260904010046 26 0 0.0 4.8 0.00 0.00 0.00 29 1009.1
20260904005527 27 49 1.6 8.0 0.00 0.00 0.00 28 1009.1
20260904005024 27 0 0.0 8.0 0.00 0.00 0.00 29 1009.1
20260904004550 27 41 3.2 8.0 0.00 0.00 0.00 26 1009.1
20260904004027 27 46 1.6 4.8 0.00 0.00 0.00 26 1009.1
20260904003526 27 51 0.0 4.8 0.00 0.00 0.00 26 1009.1
20260904003045 27 0 0.0 4.8 0.00 0.00 0.00 27 1009.1
20260904002526 27 41 0.0 4.8 0.00 0.00 0.00 25 1009.1
20260904002025 27 342 0.0 9.7 0.00 0.00 0.00 32 1009.1
20260904001542 27 30 1.6 9.7 0.00 0.00 0.00 26 1009.1
20260904001024 27 46 1.6 12.9 0.00 0.00 0.00 26 1009.2
20260904000525 27 37 6.4 12.9 0.00 0.00 0.00 22 1009.2
20260903235529 28 56 3.2 11.3 0.00 0.00 0.00 23 1009.2
20260903235024 28 72 4.8 8.0 0.00 0.00 0.00 22 1009.2
20260903234552 28 136 3.2 8.0 0.00 0.00 0.00 23 1009.3